GFSGBSN_850_spd_021.txt.gz
Wind_Speed
2 2 1 1 2 2 3 4 5 6 6 6 7 8 8 9 9 10 10 11 11 11 11 10 9 7 4 6 4 1 2 3 4 1 4 5 8 8 10 2 5 9 3 3 4 5 8
2 2 2 2 3 3 4 5 6 7 8 8 8 9 9 10 10 10 10 11 11 11 11 10 8 6 5 10 1 2 4 3 2 3 3 5 2 4 7 7 9 5 6 9 9 4 7
3 2 2 3 4 5 5 6 7 8 9 10 10 9 10 10 11 11 10 11 11 11 11 9 7 5 6 3 5 5 6 2 4 3 4 2 2 8 2 10 6 10 11 15 12 4 6
4 3 3 3 4 5 6 7 8 9 9 10 11 11 10 11 11 11 10 11 11 10 10 8 5 2 7 7 5 7 7 4 4 5 3 4 4 9 9 6 12 13 16 14 10 1 5
5 5 5 5 5 6 7 8 8 10 10 10 11 11 11 11 11 11 10 11 10 11 8 6 3 2 6 3 8 9 8 4 5 6 4 5 7 12 7 13 14 15 13 18 5 6 4
6 6 7 7 7 8 8 9 9 10 10 10 10 11 11 11 11 10 10 10 10 10 8 6 5 6 9 7 12 11 8 7 6 7 6 8 9 10 11 10 11 7 12 7 4 4 3
7 7 7 8 8 8 9 10 10 10 10 10 11 11 11 10 10 8 7 7 7 4 10 11 1 6 4 6 9 11 11 9 8 10 12 9 10 12 10 4 11 9 7 8 7 2 6
8 8 8 8 9 9 10 10 11 11 11 10 10 10 10 10 8 7 2 4 4 5 10 15 15 9 5 7 8 13 13 12 11 12 12 6 13 1 2 6 8 8 9 10 4 1 8
9 9 9 9 9 10 10 10 11 11 11 11 10 10 9 8 6 4 4 4 4 6 8 12 14 17 11 11 12 18 18 17 11 13 10 16 9 3 7 9 10 11 10 6 8 4 14
9 9 9 9 10 10 10 10 11 11 12 11 11 10 8 4 1 4 4 4 5 4 6 14 10 11 19 12 12 12 19 13 9 11 10 11 4 5 9 10 8 15 6 4 9 10 9
10 9 10 10 10 10 11 11 11 12 12 12 11 9 7 6 5 4 3 3 3 2 7 14 12 10 14 16 14 15 18 14 12 9 5 5 7 9 9 8 5 3 3 7 9 11 12
11 12 11 10 11 11 11 11 12 12 12 12 12 10 6 4 7 7 4 4 2 7 9 9 10 13 16 23 11 15 18 15 11 10 11 12 2 7 12 6 8 4 8 12 12 13 12
12 11 12 12 11 11 12 12 12 13 13 12 11 10 7 8 5 5 4 5 7 10 6 10 12 17 19 15 16 13 18 17 11 11 13 14 13 10 8 9 10 10 11 10 11 11 9
13 13 14 12 12 12 12 13 13 13 13 12 11 9 8 11 9 7 5 8 11 13 8 4 3 12 17 18 18 17 17 17 20 14 11 11 14 17 11 14 10 11 12 11 15 10 5
15 15 15 14 13 13 13 13 14 14 15 12 8 4 5 5 10 8 12 11 11 9 4 7 7 12 14 15 11 17 18 19 18 17 12 8 6 8 4 7 11 14 11 15 17 18 12
15 16 15 15 15 14 14 14 15 14 14 12 3 5 6 7 9 10 10 18 8 5 2 8 11 11 13 13 12 17 17 17 18 16 17 3 6 10 10 7 10 12 9 9 9 15 16
15 15 15 15 14 15 15 15 15 14 13 7 2 7 4 5 10 14 12 19 16 4 6 5 10 5 11 12 16 15 12 4 13 15 14 15 6 7 7 11 14 9 11 12 16 10 10
16 16 15 14 14 15 15 14 15 15 11 4 4 5 4 9 12 18 13 16 2 7 10 8 4 7 4 6 9 12 16 9 6 8 17 16 8 10 14 10 6 11 12 12 9 13 11
18 15 15 15 15 15 15 14 13 13 13 4 6 2 3 10 8 10 14 7 4 13 10 9 9 5 3 5 6 9 8 13 5 9 4 10 7 10 13 11 13 11 14 13 9 12 11
18 16 15 15 15 15 15 14 12 11 10 5 6 5 6 13 14 9 15 11 12 9 11 8 6 2 7 8 5 6 7 5 4 10 7 4 11 11 14 4 12 14 14 13 13 12 13
15 16 16 16 15 14 14 14 12 8 8 3 5 2 5 7 12 11 6 7 16 10 15 11 9 11 10 8 10 7 12 9 9 4 6 9 12 14 17 18 12 11 12 14 13 15 17
15 15 16 17 15 14 14 13 12 8 5 4 8 6 4 4 4 7 7 11 12 14 7 10 14 13 11 9 10 10 11 9 10 12 13 10 8 13 16 15 14 13 12 14 16 13 18
15 16 16 16 16 14 13 13 11 8 6 3 6 6 7 8 9 9 9 10 10 4 8 11 10 13 8 6 9 8 11 6 7 7 6 8 10 11 13 17 20 14 15 15 16 14 16
15 16 17 15 14 14 13 11 11 8 7 6 6 5 9 7 7 9 4 4 6 8 8 10 3 7 7 4 5 11 15 14 13 11 11 7 8 10 11 14 17 9 9 9 11 15 15
13 16 16 15 14 13 12 10 9 8 4 7 7 3 7 8 3 5 6 6 10 4 9 4 7 4 5 5 6 9 11 13 17 17 15 13 10 9 12 12 15 15 6 10 11 14 15
13 15 15 14 13 11 12 10 8 7 5 7 6 4 4 10 3 8 6 10 8 10 11 9 6 4 5 11 11 13 11 12 10 15 18 17 12 10 12 14 18 15 9 6 3 11 12
11 14 14 13 10 11 11 10 8 6 5 3 5 3 2 11 3 4 5 6 10 13 7 10 11 8 12 9 10 11 14 15 13 14 12 14 13 15 14 14 12 16 7 2 10 2 11
11 13 13 12 10 11 11 10 8 6 5 4 4 5 2 7 7 4 5 7 6 7 8 5 3 11 8 12 11 9 10 9 15 13 13 13 13 12 13 16 18 1 7 10 6 5 10
11 13 12 11 10 10 10 9 9 7 5 5 2 7 5 6 6 7 8 11 9 5 9 2 7 8 6 6 10 7 10 6 3 10 8 6 8 5 6 9 8 6 7 6 5 5 5

GFSGBSN_850_spd_024.txt.gz
Wind_Speed
2 3 2 3 4 4 5 5 6 6 7 8 9 9 10 10 11 11 11 11 11 11 12 11 10 8 6 7 2 2 3 3 4 5 5 5 8 10 13 6 3 10 5 1 3 4 5
3 3 3 4 5 6 6 7 8 8 8 9 10 10 11 11 11 12 12 12 11 11 12 11 9 8 5 11 1 1 1 2 4 2 2 4 9 9 10 5 8 6 6 10 9 9 5
2 3 4 5 6 7 8 9 10 10 10 10 10 11 12 12 12 12 12 12 11 11 11 10 8 7 8 7 3 3 5 2 4 4 4 5 5 8 8 7 11 6 11 12 16 11 5
4 4 4 5 6 7 8 9 10 11 12 12 11 12 12 13 12 12 12 12 11 10 9 9 7 6 7 5 5 7 7 6 5 5 4 5 6 11 14 13 8 11 14 14 15 8 6
6 6 6 6 7 8 9 10 11 11 12 13 13 13 13 13 13 12 12 11 10 10 9 6 4 5 12 5 9 9 9 6 6 6 6 7 7 13 15 10 12 16 12 15 6 7 4
7 7 8 8 8 9 9 10 11 12 12 13 13 13 13 13 13 12 11 11 10 10 8 7 7 8 13 8 7 11 10 8 7 5 8 9 9 11 11 11 13 12 11 10 16 3 9
6 7 8 9 9 9 10 10 11 12 12 13 13 13 13 13 11 11 9 7 10 2 7 13 10 11 5 3 9 11 11 8 10 7 10 13 9 12 16 11 10 10 13 12 9 1 4
8 8 8 8 9 10 10 11 11 12 12 13 13 13 13 12 9 7 3 3 4 6 11 15 20 14 4 6 10 12 13 12 12 11 14 10 11 16 3 7 8 10 10 10 10 3 3
10 10 10 10 9 10 10 11 12 12 13 13 13 12 12 10 7 4 3 9 7 8 8 16 21 22 14 12 14 16 18 18 12 12 14 14 2 6 2 5 8 11 10 11 6 10 9
11 11 11 11 11 10 11 11 12 12 13 13 12 11 10 5 1 2 7 4 5 6 5 13 15 16 20 14 17 15 19 17 9 13 13 10 14 2 5 9 11 13 2 1 7 10 12
12 13 13 12 12 12 12 12 12 12 13 12 12 11 7 6 2 4 2 4 6 3 5 12 17 11 18 19 5 17 19 20 16 11 8 12 12 5 9 10 4 11 4 8 9 11 14
12 13 13 14 14 13 13 13 13 13 13 12 12 11 6 2 9 5 8 6 4 5 10 8 11 12 17 20 19 17 20 20 13 13 10 16 2 7 11 8 7 11 6 10 12 12 12
14 14 14 13 14 14 13 13 14 14 14 13 12 10 9 13 7 3 6 5 5 9 15 12 15 15 20 17 20 12 18 17 14 10 12 12 13 10 8 8 8 10 9 9 10 12 8
14 14 14 14 14 14 14 14 14 15 15 13 12 10 10 13 7 8 4 8 10 12 22 8 11 18 19 19 20 17 17 16 19 17 11 12 14 19 12 10 11 12 10 8 14 14 3
14 15 15 14 14 15 15 15 15 14 16 14 10 5 7 7 15 6 9 10 11 17 11 8 8 8 17 20 13 19 19 18 18 18 16 11 10 13 14 8 10 12 11 13 13 15 14
15 14 14 14 14 14 15 16 15 14 15 15 7 5 9 9 9 8 9 16 18 7 9 3 8 12 15 19 19 20 17 18 19 20 20 12 5 9 10 4 8 12 11 9 8 13 14
18 16 15 14 15 15 15 16 16 14 14 9 3 6 10 7 9 11 10 17 17 11 3 4 11 16 15 13 15 14 13 17 19 18 18 14 5 9 11 8 10 7 11 10 14 12 13
17 17 17 16 14 15 15 15 16 16 12 6 6 5 8 11 12 14 12 17 23 11 4 7 7 15 10 13 16 14 12 14 13 13 16 12 7 11 14 11 13 13 13 11 7 11 12
16 15 17 18 16 14 14 14 15 15 16 11 6 6 6 13 7 11 17 21 26 10 8 7 7 14 5 10 1 7 12 12 9 4 7 3 9 10 12 12 15 8 12 14 13 11 14
15 16 15 16 17 16 13 13 12 12 11 11 7 4 8 12 19 16 15 19 16 6 16 11 11 12 8 9 8 8 4 6 4 4 9 7 10 8 12 1 1 15 11 13 15 10 13
15 16 16 17 15 16 15 13 11 9 9 7 7 5 6 6 12 14 14 11 12 12 12 10 8 10 9 8 13 9 11 6 6 2 4 4 9 12 15 18 17 15 16 17 14 16 15
15 16 16 17 15 15 16 14 10 6 3 4 10 10 16 14 5 9 11 11 9 17 11 14 11 11 12 10 11 7 11 15 5 9 7 10 9 11 16 19 20 19 19 14 16 18 15
14 16 17 16 15 14 14 14 12 6 2 5 11 9 10 8 5 6 10 9 12 16 11 7 4 13 13 7 7 10 12 8 9 7 4 7 7 8 14 16 15 15 17 14 15 16 17
14 16 18 17 15 13 12 13 11 8 7 5 10 11 10 10 8 10 15 13 9 8 6 4 4 9 11 9 6 7 8 8 7 5 7 5 5 7 11 13 15 15 11 8 14 14 15
14 15 17 16 15 13 12 11 10 7 2 2 8 6 8 9 17 6 3 2 3 3 4 7 1 8 10 8 3 5 8 11 13 12 11 10 6 8 10 13 14 17 4 16 14 13 14
12 13 16 16 15 13 11 10 9 8 3 3 6 6 7 11 8 13 13 5 7 8 7 16 10 3 8 8 6 11 8 11 9 15 16 15 9 8 12 13 16 13 14 16 21 6 14
10 11 15 15 14 13 11 10 8 7 6 3 2 10 4 11 4 10 7 10 12 13 7 14 15 5 6 7 10 12 13 16 15 14 11 13 11 15 12 13 16 17 17 26 13 7 15
10 12 13 14 13 12 11 10 8 7 6 2 2 11 5 8 11 6 6 9 13 8 8 15 5 4 5 7 8 8 9 10 15 14 10 13 11 12 11 14 20 16 12 4 1 7 9
12 11 12 13 12 12 10 9 8 6 5 3 4 6 8 7 9 8 9 11 9 7 9 10 10 4 5 6 8 8 11 10 9 8 14 3 11 9 9 7 8 12 15 12 8 5 7

GFSGBSN_850_spd_030.txt.gz
Wind_Speed
3 2 3 3 4 4 5 6 7 8 8 9 10 10 10 11 10 10 10 10 10 10 10 11 10 10 8 2 2 3 4 5 6 5 4 11 8 8 3 5 5 2 5 10 17 14 3
3 4 4 4 5 6 7 7 8 9 9 10 10 11 11 11 12 11 11 10 10 9 10 10 10 8 6 3 1 4 1 6 4 4 8 13 7 12 7 7 1 11 3 3 6 6 5
3 4 5 6 6 7 8 9 9 10 10 11 11 12 12 12 12 12 11 11 10 9 9 9 9 8 6 6 1 4 2 5 2 4 8 8 11 8 13 8 15 12 1 6 11 13 5
5 5 5 6 7 8 8 9 10 10 11 12 12 13 13 13 13 12 12 12 10 9 9 8 7 8 5 3 5 7 3 4 3 4 5 5 10 11 5 9 11 6 5 3 8 5 10
5 5 6 7 8 8 9 10 10 11 11 12 12 13 13 14 13 12 12 13 10 10 9 8 6 5 6 5 12 12 8 4 3 4 4 4 10 4 5 3 5 6 4 5 8 6 5
7 7 7 7 8 9 10 10 11 12 12 12 13 13 13 13 13 12 11 11 9 8 8 7 8 6 5 5 4 9 12 7 9 6 8 7 3 2 3 5 3 5 5 4 4 6 4
9 9 9 9 9 9 9 10 11 12 13 13 13 13 12 11 11 11 7 1 4 1 13 7 5 9 14 6 2 5 7 5 7 7 3 3 3 6 8 7 8 6 1 3 3 7 4
10 10 10 10 10 10 10 11 11 11 12 13 13 13 11 9 7 7 4 6 7 8 11 14 17 22 20 9 7 7 11 8 3 4 2 5 5 11 7 7 7 1 2 6 5 5 3
11 11 11 11 11 11 11 11 12 12 12 13 13 13 11 7 5 3 4 11 5 11 4 14 16 19 20 10 13 11 13 16 3 4 6 6 10 5 6 6 3 3 4 4 6 3 2
12 12 12 12 12 12 12 12 12 12 12 12 13 11 11 5 3 2 4 4 3 7 4 8 7 12 22 10 8 21 16 15 4 9 4 6 13 8 7 2 3 3 1 3 4 5 1
13 13 13 12 12 13 13 13 13 13 13 13 12 11 8 5 4 4 2 1 2 2 2 4 5 7 18 15 2 8 21 23 7 10 4 7 6 3 3 5 4 8 2 3 4 5 5
13 13 14 14 14 14 14 14 14 14 14 13 12 13 9 7 8 4 3 6 3 5 5 5 7 7 7 12 10 5 16 24 10 3 3 10 12 3 7 5 4 1 6 9 6 4 3
14 14 15 15 15 15 15 15 14 15 15 14 12 13 11 10 6 5 2 5 5 3 5 4 3 8 9 8 11 4 4 7 5 2 5 7 6 6 2 1 7 6 7 4 5 4 5
13 14 15 16 16 16 16 16 16 15 17 15 13 13 12 12 11 4 5 5 3 6 6 5 3 2 8 6 8 6 6 6 4 5 2 2 7 5 2 6 6 4 8 5 4 2 5
13 14 15 17 17 17 17 17 17 17 17 17 13 10 10 6 13 10 5 3 7 6 2 7 9 5 7 5 5 6 9 9 10 8 7 4 6 4 6 6 9 3 2 6 6 1 3
14 14 15 16 18 18 18 18 18 17 17 17 12 6 4 7 16 12 4 6 6 4 7 5 1 4 7 10 6 7 8 7 7 13 14 6 4 5 9 8 2 6 5 3 4 1 1
13 15 16 17 18 18 19 20 20 17 17 14 7 4 10 9 18 8 4 7 5 6 10 4 5 4 4 2 4 6 9 5 11 11 15 7 5 11 0 1 7 3 2 6 5 5 5
12 14 15 16 18 18 18 20 21 20 16 12 3 2 13 15 4 2 2 4 9 8 5 5 5 4 3 4 2 2 10 10 12 15 9 9 6 6 3 7 2 3 4 5 5 4 2
14 14 15 16 17 18 18 18 20 21 19 17 9 4 19 14 2 2 7 6 6 5 6 5 5 2 1 2 4 3 6 7 4 5 8 6 1 0 7 7 6 2 1 4 5 3 4
14 14 14 15 16 17 18 18 17 18 17 15 4 3 1 12 7 2 2 5 4 9 16 9 7 4 5 5 5 4 6 4 6 6 5 6 4 8 7 6 4 3 6 5 4 3 3
14 15 15 15 15 16 17 18 16 16 14 8 3 2 4 3 6 7 4 4 5 5 6 6 3 3 3 3 5 6 5 6 6 11 5 5 4 3 4 2 2 1 5 8 5 4 4
14 15 15 15 15 15 16 17 17 15 9 8 5 6 7 7 12 5 8 5 6 7 4 5 5 2 9 5 2 3 3 5 1 7 5 6 1 2 5 4 7 4 8 8 2 6 1
13 14 15 15 15 14 14 15 16 14 9 4 7 4 4 6 8 6 5 6 4 3 4 9 5 6 8 3 8 9 4 4 3 3 4 3 3 3 3 4 5 4 4 3 6 4 3
13 13 14 15 14 13 13 13 14 14 12 10 11 6 5 4 3 4 14 15 6 4 3 11 16 7 3 3 3 2 4 10 11 9 6 3 3 2 2 4 1 6 5 15 13 8 8
13 13 13 15 14 12 12 11 11 10 8 6 9 6 5 3 8 10 21 16 8 1 9 13 13 12 7 8 4 5 5 4 5 3 4 5 4 3 4 2 4 5 3 2 3 3 3
14 12 12 13 15 12 11 10 9 8 7 3 7 9 1 2 2 15 7 17 4 5 6 5 10 9 9 4 4 3 2 4 1 3 1 6 6 4 2 4 6 7 3 4 8 1 12
12 12 12 13 14 11 10 9 9 7 5 6 8 9 2 3 5 13 6 6 10 6 1 4 10 7 6 3 3 2 2 2 2 4 4 2 2 5 3 3 6 6 8 2 2 6 20
11 13 11 12 12 11 9 9 8 7 4 4 5 4 5 4 14 6 4 9 10 10 3 10 4 10 6 4 3 2 2 3 1 4 4 6 5 5 2 3 6 12 5 2 4 1 19
11 13 12 10 11 10 9 8 7 7 5 1 4 5 8 9 8 11 13 6 7 1 6 9 5 1 5 3 2 1 2 2 3 3 4 2 6 5 6 4 4 16 16 8 7 7 15

GFSGBSN_850_spd_033.txt.gz
Wind_Speed
1 2 3 4 5 6 6 7 7 9 10 10 10 10 11 11 11 11 10 10 10 10 11 10 10 10 7 3 2 3 4 4 7 6 6 9 6 4 2 4 6 5 6 14 27 9 9
1 2 4 5 6 7 8 8 9 9 10 11 11 11 12 12 12 12 12 11 11 11 11 10 9 8 5 3 1 3 1 4 3 3 5 9 5 7 2 5 1 9 16 13 5 4 3
2 3 4 5 6 7 8 9 9 10 11 12 12 12 13 13 13 13 12 12 12 11 12 10 9 9 7 6 4 2 2 3 2 2 3 7 8 8 6 5 9 6 4 6 5 1 1
3 4 5 5 6 7 9 10 10 11 11 12 13 13 13 13 14 14 13 13 13 12 12 10 9 9 6 4 8 5 2 4 2 2 4 6 9 9 2 7 7 4 5 4 7 3 7
5 6 6 7 7 7 8 10 10 11 12 12 13 14 14 14 14 14 13 13 13 12 11 10 9 6 6 6 10 5 5 4 2 2 2 4 8 3 3 3 6 7 2 4 9 4 4
7 7 7 7 8 9 9 10 11 11 12 13 13 14 14 14 13 13 12 12 9 7 6 8 10 5 6 1 5 6 10 5 5 8 4 2 1 3 4 5 3 4 4 5 6 5 2
8 8 9 9 9 10 10 11 11 12 12 13 13 13 13 13 12 11 8 4 3 3 9 8 6 6 11 5 2 5 8 8 6 2 2 4 5 3 5 5 4 3 4 6 5 5 5
9 10 10 10 10 10 11 12 12 12 13 13 14 14 12 11 10 6 5 6 7 7 11 10 16 21 20 18 5 7 11 6 2 2 2 6 4 8 4 5 6 6 5 6 5 3 0
11 11 11 11 11 11 12 12 12 13 13 13 14 13 13 9 7 3 3 5 7 4 4 12 14 17 18 10 9 12 14 11 3 3 3 5 6 3 3 4 5 3 3 3 5 6 6
11 11 12 12 12 12 12 13 13 13 13 14 14 13 13 7 4 5 5 2 2 3 5 7 5 10 16 15 6 17 16 10 3 6 6 5 6 4 5 6 7 3 5 2 2 4 2
13 13 13 12 12 13 14 13 13 14 14 14 14 13 11 6 5 5 4 3 2 1 3 3 4 2 13 15 2 5 22 15 7 4 5 6 2 7 4 6 5 8 3 2 3 4 2
11 12 14 14 14 14 14 14 14 14 14 14 14 15 10 9 8 6 2 5 2 5 6 6 5 5 5 5 2 3 13 12 4 3 3 7 6 5 6 4 4 3 4 7 5 3 3
11 11 12 14 15 15 15 15 15 15 16 14 13 15 12 9 4 5 6 6 5 3 5 5 1 1 3 6 4 3 5 4 6 4 2 5 4 4 5 1 3 7 7 4 4 5 5
11 12 12 13 15 16 16 17 17 16 17 15 13 14 13 9 10 8 7 4 3 5 6 5 4 0 6 3 3 5 5 4 2 4 3 3 6 2 1 4 6 3 7 5 4 2 5
11 12 13 14 14 16 17 17 18 17 18 16 13 12 11 6 13 12 7 3 7 6 4 6 8 0 3 4 2 4 7 7 8 7 7 5 5 3 3 5 7 3 2 4 7 3 3
11 12 13 14 15 16 17 18 18 18 18 16 12 6 2 6 16 14 4 6 5 4 5 4 2 2 1 5 7 7 8 5 5 10 8 6 2 3 5 4 4 7 7 3 3 2 2
11 12 13 14 15 17 17 18 19 18 17 14 6 1 6 9 18 8 4 6 4 8 7 1 2 3 4 2 7 6 7 4 9 7 8 5 4 6 3 1 7 2 2 7 5 4 5
11 12 13 15 16 16 17 18 19 18 18 12 2 3 10 14 3 2 2 4 4 4 3 4 2 5 4 2 2 1 7 9 14 13 10 8 5 4 9 1 3 3 4 5 5 3 2
10 12 14 15 16 17 17 18 18 18 19 18 6 3 12 14 2 2 5 5 4 3 5 3 3 2 3 3 1 3 2 3 4 10 10 8 1 2 9 7 4 7 3 6 5 3 3
9 10 12 14 15 16 16 16 17 16 14 12 3 2 3 11 3 4 1 5 4 7 8 8 6 5 4 3 4 2 5 4 7 5 8 12 4 7 7 7 4 4 4 4 5 3 4
9 11 12 14 15 15 16 16 16 13 10 7 5 2 2 2 2 3 3 3 3 4 4 7 2 4 4 1 3 5 4 6 6 10 4 5 5 3 3 5 4 3 3 4 4 4 4
10 11 12 14 14 15 15 15 15 12 5 6 4 4 5 4 9 5 5 3 7 7 5 4 3 3 4 5 4 1 1 5 2 6 4 3 2 3 3 3 5 3 4 4 4 2 1
11 11 12 12 13 14 14 14 14 13 7 3 5 3 2 3 6 3 1 4 6 5 4 2 4 5 5 5 6 4 2 3 2 1 3 3 5 3 3 2 4 4 2 3 5 4 2
13 12 11 12 12 13 14 13 13 13 10 8 9 4 2 2 2 2 4 9 7 5 3 4 9 3 2 3 0 2 2 3 8 7 2 3 4 3 2 3 2 5 4 7 10 2 2
12 11 11 12 11 11 12 12 10 9 7 5 9 4 3 1 4 6 13 11 9 7 4 5 10 6 2 3 4 5 5 5 4 4 5 5 4 4 4 3 3 3 4 3 3 2 5
10 12 11 12 11 10 10 10 9 8 7 2 5 5 1 1 3 6 5 9 3 5 7 5 7 11 3 4 4 3 3 4 3 3 4 6 7 5 2 4 5 5 1 1 5 4 15
9 11 12 10 11 10 9 9 9 8 5 3 4 5 3 4 2 5 3 3 6 4 2 5 10 9 7 3 3 2 2 2 2 3 3 3 3 4 3 3 6 5 6 5 3 7 14
9 10 12 10 10 10 8 8 8 7 5 2 1 5 6 5 10 6 3 5 7 5 2 8 3 6 5 4 2 1 1 2 1 2 1 3 4 2 3 4 5 4 4 3 4 3 14
10 10 11 11 9 9 9 8 8 8 6 3 4 7 11 9 7 10 12 10 8 4 6 8 2 1 3 3 2 2 2 3 1 2 3 1 4 3 5 5 4 7 2 4 7 5 7